This is the latest recevied weather packets stored in our database for station/object KC4JES. If no packets are shown the sender has not sent any weather packets the latest 10 day(s).
| Time | Temp. | Humidity | Pressure | Rain* | Wind** | Luminosity | Snow |
|---|---|---|---|---|---|---|---|
| 1777912356 | 25° C | 49% | 1019.2 hPa | 0 mm | - | 59 W/m² | - |
| 1777912052 | 25° C | 49% | 1019.1 hPa | 0 mm | - | 60 W/m² | - |
| 1777911748 | 24.44° C | 51% | 1019.2 hPa | 0 mm | - | 61 W/m² | - |
| 1777911445 | 24.44° C | 48% | 1019.4 hPa | 0 mm | - | 62 W/m² | - |
| 1777911142 | 24.44° C | 45% | 1019.5 hPa | 0 mm | - | 64 W/m² | - |
| 1777910840 | 25° C | 51% | 1019.5 hPa | 0 mm | - | 64 W/m² | - |
| 1777910536 | 24.44° C | 52% | 1019.2 hPa | 0 mm | - | 65 W/m² | - |
| 1777910233 | 23.89° C | 54% | 1019.5 hPa | 0 mm | - | 42 W/m² | - |
| 1777909930 | 23.89° C | 51% | 1019.3 hPa | 0 mm | - | 68 W/m² | - |
| 1777909627 | 23.89° C | 51% | 1019.2 hPa | 0 mm | - | 69 W/m² | - |
| 1777909324 | 24.44° C | 47% | 1019.3 hPa | 0 mm | - | 69 W/m² | - |
| 1777909022 | 23.89° C | 50% | 1019.4 hPa | 0 mm | - | 69 W/m² | - |
| 1777908720 | 23.89° C | 49% | 1019.3 hPa | 0 mm | - | 69 W/m² | - |
| 1777908416 | 23.89° C | 48% | 1019.5 hPa | 0 mm | - | 67 W/m² | - |
| 1777908114 | 23.89° C | 48% | 1019.2 hPa | 0 mm | - | 66 W/m² | - |
| 1777907810 | 23.89° C | 46% | 1019.4 hPa | 0 mm | - | 40 W/m² | - |
| 1777907510 | 23.89° C | 48% | 1019.4 hPa | 0 mm | - | 39 W/m² | - |
| 1777907207 | 23.33° C | 50% | 1019.3 hPa | 0 mm | - | 39 W/m² | - |
| 1777906904 | 23.33° C | 47% | 1019.3 hPa | 0 mm | - | 39 W/m² | - |
| 1777906601 | 23.33° C | 50% | 1019.2 hPa | 0 mm | - | 38 W/m² | - |
| 1777906297 | 23.33° C | 48% | 1019.2 hPa | 0 mm | - | 38 W/m² | - |
| 1777905993 | 23.33° C | 49% | 1019.2 hPa | 0 mm | - | 37 W/m² | - |
| 1777905690 | 23.33° C | 44% | 1019.2 hPa | 0 mm | - | 37 W/m² | - |
| 1777905387 | 23.89° C | 47% | 1019.3 hPa | 0 mm | - | 48 W/m² | - |
| 1777905085 | 23.33° C | 46% | 1019 hPa | 0 mm | - | 38 W/m² | - |
* Rain latest hour (hover to see other rain measurements)
** Current wind speed in m/s (hover to see current wind gust speed)